Tracking 30106 objects as of 23-Jan-2025
HD Live streaming from Space Station
objects crossing your sky now

USA 324

Track USA 324 now!


NORAD ID: 51280
Int'l Code: 2022-006A
Perigee: 35,772.4 km
Apogee: 35,789.1 km
Inclination: 0.3 °
Period: 1,435.4 minutes
Semi major axis: 42151 km
RCS: Unknown
Launch date: January 21, 2022
Source: United States (US)
Launch site: AIR FORCE EASTERN TEST RANGE (AFETR)
Your satellite tracking list
Your tracking list is empty




NASA's NSSDC Master Catalog

Two Line Element Set (TLE):
1 51280U 22006A   25020.44078233 -.00000250  00000-0  00000+0 0  9993
2 51280   0.2630  82.4026 0001978 333.2778   4.0911  1.00318023  2262
Source of the keplerian elements: McCants